Location: Boiro
(42.6475°N, 8.8834°W)
Time: 23:45:23
(UTC+01:00)

Tiros 1 - Pass Details

Date: 08 December 2021
Orbit: 629 x 664 km, 48.4° (Epoch: 18 January)

Event Time Altitude Azimuth Distance (km) Brightness Sun altitude
Rises 23:09:46 0° 295° (WNW) 2,940 - -55.2°
Reaches altitude 10° 23:12:06 10° 298° (WNW) 2,035 - -55.6°
Maximum altitude 23:16:47 75° 24° (NNE) 673 - -56.4°
Drops below altitude 10° 23:21:31 10° 110° (ESE) 2,051 - -57.2°
Sets 23:23:52 0° 112° (ESE) 2,966 - -57.6°
